This demonstration page uses our WeatherBlox Daily Observations layout. Learn more.

Left ArrowRight Arrow

Hourly Observations for February 5, 2015

Temp ( °F °C ) Dew Point ( °F °C ) Humidity (%) Winds ( mph kmh ) Pressure ( in mb ) Visibility ( mi km ) Precip ( " mm )
12:03 am 00:03 Cloudy 25 -3.9 18 -7.8 75 75 NNW 12 19 30.27 1025 8 12.87472 N/A
12:14 am 00:14 Cloudy 25 -3.9 17 -8.3 72 72 NW 18 30 30.27 1025 10 16.0934 N/A
12:53 am 00:53 Partly Cloudy 23 -5 15 -9.4 72 72 NNW 17 28 30.28 1025 10 16.0934 N/A
1:53 am 01:53 Clear 21 -6.1 13 -10.6 71 71 NNW 14 22 30.3 1026 10 16.0934 N/A
2:53 am 02:53 Mostly Clear 19 -7.2 11 -11.7 71 71 NNW 9 15 30.33 1027 10 16.0934 N/A
3:53 am 03:53 Clear 18 -7.8 11 -11.7 74 74 NW 8 13 30.35 1028 10 16.0934 N/A
4:53 am 04:53 Clear 17 -8.3 8 -13.3 68 68 NNW 10 17 30.37 1029 10 16.0934 N/A
5:53 am 05:53 Clear 15 -9.4 7 -13.9 70 70 NNW 6 9 30.4 1029 10 16.0934 N/A
6:53 am 06:53 Clear 13 -10.6 6 -14.4 74 74 NNW 5 7 30.43 1030 10 16.0934 N/A
7:53 am 07:53 Sunny 10 -12.2 6 -14.4 84 84 NW 6 9 30.46 1032 10 16.0934 N/A
8:53 am 08:53 Sunny 14 -10 7 -13.9 73 73 NNW 7 11 30.49 1032 10 16.0934 N/A
9:53 am 09:53 Sunny 16 -8.9 8 -13.3 71 71 N 7 11 30.51 1033 10 16.0934 N/A
10:53 am 10:53 Sunny 19 -7.2 7 -13.9 59 59 VRB 5 7 30.52 1034 10 16.0934 N/A
11:53 am 11:53 Mostly Sunny 20 -6.7 6 -14.4 55 55 N 8 13 30.51 1033 10 16.0934 N/A
12:53 pm 12:53 Sunny with Light Snow 20 -6.7 5 -15 52 52 undefined N/A 30.5 1033 9 14.48406 N/A
1:53 pm 13:53 Sunny with Light Snow 21 -6.1 7 -13.9 54 54 N 7 11 30.48 1032 9 14.48406 N/A
2:53 pm 14:53 Sunny with Light Snow 22 -5.6 6 -14.4 50 50 E 5 7 30.48 1032 9 14.48406 N/A
3:53 pm 15:53 Sunny with Light Snow 23 -5 6 -14.4 48 48 N N/A 30.46 1032 9 14.48406 N/A
4:53 pm 16:53 Sunny with Light Snow 22 -5.6 6 -14.4 50 50 NE 5 7 30.46 1031 9 14.48406 N/A
5:53 pm 17:53 Sunny 20 -6.7 6 -14.4 55 55 N N/A 30.45 1031 10 16.0934 N/A
6:53 pm 18:53 Clear 15 -9.4 8 -13.3 74 74 N N/A 30.45 1031 10 16.0934 N/A
7:53 pm 19:53 Clear 11 -11.7 7 -13.9 84 84 N N/A 30.44 1031 10 16.0934 N/A
8:53 pm 20:53 Clear 11 -11.7 6 -14.4 81 81 N N/A 30.44 1031 10 16.0934 N/A
9:53 pm 21:53 Clear 10 -12.2 5 -15 80 80 N N/A 30.44 1031 10 16.0934 N/A
10:53 pm 22:53 Clear 8 -13.3 4 -15.6 83 83 N N/A 30.43 1030 10 16.0934 N/A
11:53 pm 23:53 Clear 8 -13.3 4 -15.6 83 83 N N/A 30.43 1031 10 16.0934 N/A

Powered by AerisWeather